Weather History for Williston, ND

Change the Weather History Date:

Sunday, November 20, 2011

  Actual Average Record
Temperature  
Mean Temperature 12 °F 24 °F  
Max Temperature 24 °F 35 °F 64 °F (2006)
Min Temperature 0 °F 14 °F -22 °F (1896)
Degree Days  
Heating Degree Days 53 41  
Month to date heating degree days 741 701  
Since 1 July heating degree days 1434 1728  
Cooling Degree Days 0 0  
Month to date cooling degree days 0 0  
Year to date cooling degree days 452 456  
Moisture  
Dew Point 6 °F    
Average Humidity 75    
Maximum Humidity 95    
Minimum Humidity 55    
Precipitation  
Precipitation 0.00 in 0.02 in 0.38 in (2010)
Month to date precipitation 0.26 0.47  
Year to date precipitation 18.92 13.57  
Sea Level Pressure  
Sea Level Pressure 30.13 in    
Wind  
Wind Speed 5 mph (South)    
Max Wind Speed 14 mph    
Max Gust Speed 18 mph    
Visibility 10 miles    
Events      
T = Trace of Precipitation, MM = Missing Value Source: NWS Daily Summary

Daily Weather History Graph

Daily Weather History Graph

Search for Another Location

Airport:

Trip Planner

Search our weather history database for the weather conditions in past years. The results will help you decide how hot, cold, wet, or windy it might be!

Date:

Astronomy

Nov. 20, 2011 Rise Set
Actual Time 8:08 AM CST 5:11 PM CST
Civil Twilight 7:34 AM CST 5:45 PM CST
Nautical Twilight 6:55 AM CST 6:23 PM CST
Astronomical Twilight 6:18 AM CST 7:00 PM CST
Moon 2:17 AM CST (11/20) 2:20 PM CST (11/20)
Length of Visible Light 10h 11m
Length of Day
9h 02m
Waning Crescent, 27% of the Moon is Illuminated
Nov 20
Waning Crescent
Nov 25
New
Dec 2
First Quarter
Dec 10
Full
Dec 17
Last Quarter

Hourly Weather History & Observations

Time (CST) Temp. Windchill Dew Point Humidity Pressure Visibility Wind Dir Wind Speed Gust Speed Precip Events Conditions
12:52 AM 10.9 °F -0.8 °F 6.1 °F 81% 30.24 in 10.0 mi SSE 8.1 mph - N/A   Overcast
1:52 AM 10.9 °F -0.8 °F 6.1 °F 81% 30.22 in 10.0 mi SSE 8.1 mph - N/A   Overcast
2:52 AM 9.0 °F -3.2 °F 6.1 °F 88% 30.23 in 10.0 mi SSE 8.1 mph - N/A   Overcast
3:26 AM 6.8 °F -4.8 °F 3.2 °F 85% 30.09 in 10.0 mi SSE 6.9 mph - N/A   Scattered Clouds
3:52 AM 6.1 °F -4.3 °F 3.9 °F 91% 30.22 in 10.0 mi SSE 5.8 mph - N/A   Clear
4:52 AM 1.9 °F - -0.0 °F 91% 30.22 in 10.0 mi Calm Calm - N/A   Clear
5:52 AM 1.4 °F -6.2 °F -0.4 °F 92% 30.06 in 9.0 mi South 3.5 mph - N/A   Clear
6:52 AM 3.0 °F - -0.0 °F 87% 30.20 in 10.0 mi Calm Calm - N/A   Clear
7:52 AM 3.0 °F -4.4 °F -0.0 °F 87% 30.20 in 10.0 mi SSE 3.5 mph - N/A   Clear
8:52 AM 1.9 °F -7.6 °F -0.9 °F 88% 30.20 in 10.0 mi South 4.6 mph - N/A   Clear
9:52 AM 9.0 °F -5.1 °F 3.0 °F 77% 30.18 in 10.0 mi South 10.4 mph - N/A   Clear
10:52 AM 10.9 °F -1.8 °F 3.9 °F 73% 30.16 in 10.0 mi South 9.2 mph - N/A   Clear
11:52 AM 15.1 °F 3.3 °F 6.1 °F 68% 30.14 in 10.0 mi South 9.2 mph - N/A   Clear
12:52 PM 18.0 °F 7.7 °F 8.1 °F 65% 30.11 in 10.0 mi South 8.1 mph - N/A   Clear
1:52 PM 21.9 °F 12.5 °F 9.0 °F 58% 30.08 in 10.0 mi South 8.1 mph - N/A   Clear
2:52 PM 24.1 °F 17.0 °F 10.9 °F 57% 30.06 in 10.0 mi South 5.8 mph - N/A   Clear
3:52 PM 23.0 °F 18.4 °F 12.0 °F 63% 30.05 in 10.0 mi West 3.5 mph - N/A   Clear
4:52 PM 19.9 °F - 12.0 °F 71% 30.07 in 10.0 mi Calm Calm - N/A   Overcast
5:52 PM 19.0 °F 12.3 °F 12.0 °F 74% 30.07 in 10.0 mi SW 4.6 mph - N/A   Overcast
6:52 PM 15.1 °F - 10.0 °F 80% 30.09 in 10.0 mi Calm Calm - N/A   Clear
7:52 PM 12.2 °F - 8.6 °F 85% 29.96 in 10.0 mi Calm Calm - N/A   Mostly Cloudy
8:52 PM 10.0 °F 3.6 °F 7.0 °F 87% 30.12 in 10.0 mi SW 3.5 mph - N/A   Overcast
9:52 PM 16.0 °F 10.4 °F 10.9 °F 81% 30.10 in 10.0 mi South 3.5 mph - N/A   Overcast
10:52 PM 14.0 °F - 10.9 °F 88% 30.13 in 10.0 mi Calm Calm - N/A   Mostly Cloudy
11:52 PM 10.0 °F - 7.0 °F 87% 30.15 in 10.0 mi Calm Calm - N/A   Clear